Location: Newark
(23.5328°S, 46.7919°W)
Time: 13:51:54
(UTC+00:00)

ISS - Pass Details

Date: 07 March 2021
Orbit: 418 x 422 km, 51.6° (Epoch: 11 April)

Event Time Altitude Azimuth Distance (km) Brightness Sun altitude
Rises 23:26:19 0° 234° (SW) 2,387 1.2 -26.8°
Reaches altitude 10° 23:28:36 10° 245° (WSW) 1,515 0.0 -27.3°
Enters shadow 23:30:18 22° 268° (W) 983 -1.2 -27.7°
